{"data":{"norad_id":45442,"epoch":"2026-09-20T00:45:56.481408Z","epoch_age_seconds":54785,"freshness":"FRESH","line1":"1 45442U 20020U   26263.03190372  .00000481  00000+0  13206-2 0  9993","line2":"2 45442  87.8959   2.2160 0001757 100.2292 259.9034 13.11418830315072","mean_motion":13.1141883,"eccentricity":0.0001757,"inclination_deg":87.8959,"raan_deg":2.216,"arg_perigee_deg":100.2292,"mean_anomaly_deg":259.9034,"bstar":0.0013206,"rev_number":31507,"period_min":109.8047372097,"perigee_km":1216.3408354381,"apogee_km":1219.0100039224,"semimajor_km":7595.8124196802,"source":"CELESTRAK","updated_at":"2026-09-20T09:00:44.556076Z"}}